Fort Myers, FL

9:54 AM EST on February 25, 2017 (GMT -0500)
Page

Weather History for KFMY - October, 2013

Change the Weather History Date:

Tuesday, October 1, 2013

  Actual Average Record
Temperature  
Mean Temperature 82 °F 81 °F  
Max Temperature 90 °F 89 °F 95 °F (1986)
Min Temperature 73 °F 73 °F 55 °F (1920)
Degree Days  
Heating Degree Days 0 0  
Month to date heating degree days 0 0  
Since 1 July heating degree days 0 0  
Cooling Degree Days 17 16  
Month to date cooling degree days 17 16  
Year to date cooling degree days 3222 3262  
Growing Degree Days 32 (Base 50)    
Moisture  
Dew Point 71 °F    
Average Humidity 75    
Maximum Humidity 93    
Minimum Humidity 47    
Precipitation  
Precipitation 0.00 in 0.17 in 6.16 in (1951)
Month to date precipitation 0.00 0.17  
Year to date precipitation 50.52 49.55  
Sea Level Pressure  
Sea Level Pressure 29.99 in    
Wind  
Wind Speed 7 mph (East)    
Max Wind Speed 16 mph    
Max Gust Speed 25 mph    
Visibility 10 miles    
Events      
T = Trace of Precipitation, MM = Missing Value Source: NWS Daily Summary

Daily Weather History Graph

Daily Weather History Graph

Search for Another Location

Airport or City:

Trip Planner

Search our weather history database for the weather conditions in past years. The results will help you decide how hot, cold, wet, or windy it might be!

Date:

Astronomy

Oct. 01, 2013 Rise Set
Actual Time 7:20 AM EDT 7:13 PM EDT
Civil Twilight 6:56 AM EDT 7:36 PM EDT
Nautical Twilight 6:30 AM EDT 8:03 PM EDT
Astronomical Twilight 6:03 AM EDT 8:30 PM EDT
Moon 4:09 AM EDT (10/1) 5:03 PM EDT (10/1)
Length of Visible Light 12h 39m
Length of Day
11h 53m
Waning Crescent, 12% of the Moon is Illuminated
Oct 1
Waning Crescent
Oct 4
New
Oct 11
First Quarter
Oct 18
Full
Oct 26
Last Quarter

Hourly Weather History & Observations

Time (EDT) Temp. Heat Index Dew Point Humidity Pressure Visibility Wind Dir Wind Speed Gust Speed Precip Events Conditions
12:53 AM 75.0 °F - 72.0 °F 90% 29.99 in 10.0 mi ENE 4.6 mph - N/A   Scattered Clouds
1:53 AM 73.9 °F - 72.0 °F 93% 29.99 in 10.0 mi East 3.5 mph - N/A   Clear
2:53 AM 73.0 °F - 72.0 °F 96% 29.97 in 10.0 mi East 3.5 mph - N/A   Clear
3:53 AM 73.0 °F - 72.0 °F 96% 29.97 in 10.0 mi Calm Calm - N/A   Clear
4:53 AM 73.0 °F - 72.0 °F 96% 29.97 in 10.0 mi Calm Calm - N/A   Clear
5:53 AM 73.0 °F - 72.0 °F 96% 29.97 in 10.0 mi East 3.5 mph - N/A   Clear
6:53 AM 73.0 °F - 72.0 °F 96% 29.99 in 10.0 mi Calm Calm - N/A   Clear
7:53 AM 73.9 °F - 72.0 °F 93% 30.01 in 10.0 mi ENE 4.6 mph - N/A   Clear
8:53 AM 77.0 °F - 72.0 °F 84% 30.01 in 10.0 mi ENE 6.9 mph - N/A   Clear
9:53 AM 82.0 °F 86.7 °F 72.0 °F 71% 30.03 in 10.0 mi East 6.9 mph - N/A   Clear
10:53 AM 84.0 °F 89.6 °F 72.0 °F 67% 30.02 in 10.0 mi East 9.2 mph - N/A   Clear
11:53 AM 84.9 °F 90.7 °F 72.0 °F 65% 30.02 in 10.0 mi East 9.2 mph - N/A   Partly Cloudy
12:53 PM 86.0 °F 91.5 °F 71.1 °F 61% 30.01 in 10.0 mi ENE 9.2 mph - N/A   Scattered Clouds
1:53 PM 89.1 °F 93.7 °F 69.1 °F 52% 29.99 in 10.0 mi ESE 10.4 mph - N/A   Scattered Clouds
2:53 PM 90.0 °F 94.5 °F 69.1 °F 50% 29.96 in 10.0 mi East 12.7 mph - N/A   Clear
3:53 PM 89.1 °F 92.1 °F 66.9 °F 48% 29.95 in 10.0 mi East 9.2 mph - N/A   Overcast
4:53 PM 88.0 °F 92.1 °F 69.1 °F 53% 29.95 in 10.0 mi ENE 11.5 mph - N/A   Mostly Cloudy
5:53 PM 86.0 °F 90.7 °F 70.0 °F 59% 29.95 in 10.0 mi ENE 11.5 mph 19.6 mph N/A   Mostly Cloudy
6:53 PM 84.0 °F 87.8 °F 69.1 °F 61% 29.97 in 10.0 mi East 8.1 mph - N/A   Partly Cloudy
7:53 PM 82.9 °F 86.5 °F 69.1 °F 63% 29.99 in 10.0 mi East 9.2 mph - N/A   Partly Cloudy
8:53 PM 80.1 °F 82.9 °F 69.1 °F 69% 30.00 in 10.0 mi East 5.8 mph - N/A   Clear
9:53 PM 79.0 °F - 70.0 °F 74% 30.03 in 10.0 mi East 8.1 mph - N/A   Partly Cloudy
10:53 PM 78.1 °F - 70.0 °F 76% 30.04 in 10.0 mi East 6.9 mph - N/A   Clear
11:53 PM 75.9 °F - 70.0 °F 82% 30.03 in 10.0 mi ENE 6.9 mph - N/A   Clear